Tracking 22459 objects as of 3-Mar-2021
HD Live streaming from Space Station
objects crossing your sky now

FALCON 9 R/B


FALCON 9 R/B is no longer on orbit


NORAD ID: 46669
Int'l Code: 2020-070BS
Perigee: N/A
Apogee: N/A
Inclination: N/A
Period: N/A
Semi major axis: N/A
RCS: N/A
Launch date: October 6, 2020
Source: United States (US)
Launch site: AIR FORCE EASTERN TEST RANGE (AFETR)
Decay date: 2020-10-30

Note: This is a ROCKET BODY
aabbcc
Your satellite tracking list
Your tracking list is empty




NASA's NSSDC Master Catalog

Two Line Element Set (TLE):
1 46669U 20070BS  20304.53780204  .36422278  12726-4  23392-3 0  9996
2 46669  52.9753 318.0621 0003785 251.2207 249.7186 16.53549421  4660
Source of the keplerian elements: AFSPC